Location: Arpaise
(41.0333°N, 14.7333°E)
Time: 07:46:40
(UTC+00:00)

Cosmos 2228 Rocket - Pass Details

Date: 05 July 2020
Orbit: 618 x 652 km, 82.5° (Epoch: 05 August)

Event Time Altitude Azimuth Distance (km) Brightness Sun altitude
Rises 22:52:42 0° 360° (N) 2,982 7.9 -26.2°
Reaches altitude 10° 22:55:07 10° 8° (N) 2,065 6.7 -26.3°
Enters shadow 22:59:19 37° 75° (ENE) 1,002 4.1 -26.3°
